Torna al catalogo

CZ-6A DEB

AttivoSSO
NORAD 54284·DEBRIS·🇨🇳 China

Lanciato Nov 11, 2022 da Taiyuan Satellite Launch Center

Loading…

Prossimi Passaggi (prossime 24 ore)

TLE

AggiornatoSource: Space-Track

Epoca: Sep 14, 2026, 11:24 UTC

1 54284U 22151AB  26257.47541775  .00001378  00000-0  69926-3 0  9990
2 54284  98.8321 262.9449 0043685  65.2094 295.3616 14.17120575197477

Traccia CZ-6A DEB in tempo reale con AllMySat

Download on the App Store